Flag for U.S.A. Weather past 2 weeks in Santa Cruz, California, U.S.A.

Now
79 °F

Sunny.


Feels Like: 80 °F
Forecast: 61 / 76 °F
Wind: 10 mph from Southeast

Location: Watsonville Municipal Airport

Current Time: Aug 30, 2014 at 2:25:10 PM

Latest Report: Aug 30, 2014 at 1:53 PM


Visibility: 10 mi

Pressure: 29.90 "Hg

Humidity: 45%

Dew point: 56 °F

Location of Santa CruzLocation

Historic Weather in Santa Cruz — Graph

°F

Santa Cruz temperature yesterday

Maximum temperature yesterday: 75 °F (at 2:53 PM)
Minimum temperature yesterday: 61 °F (at 5:53 AM)
Average temperature yesterday: 66 °F

Past Weeks' High & Low Weather Summary

 TemperatureHumidityPressure
High83 °F (Aug 30, 12:53 PM)90% (Aug 16, 3:53 AM)30.08 "Hg (Aug 16, 3:53 AM)
Low55 °F (Aug 26, 3:53 AM)38% (Aug 30, 12:53 PM)29.85 "Hg (Aug 18, 6:53 PM)
Average65 °F73%29.95 "Hg
* Reported Aug 15 12:53 PM — Aug 30 12:53 PM, Santa Cruz, Weather by CustomWeather, © 2014

Note: Actual official high and low records may vary slightly from our data, if they occured in-between our weather recording intervals... More about our weather records

Advertising

Santa Cruz weather history for previous 24 hours

 ConditionsComfort  
Time TempWeatherWind HumidityBarometerVisibility
12:53 PM
Aug 30
83 °FSunny.8 mph38%29.90 "Hg10 mi
11:53 AM81 °FSunny.7 mph47%29.91 "Hg10 mi
10:53 AM75 °FSunny.5 mph60%29.92 "Hg10 mi
9:53 AM74 °FSunny.5 mph62%29.91 "Hg10 mi
8:53 AM65 °FSunny.No wind85%29.92 "Hg9 mi
8:04 AM62 °FFog.No wind90%29.92 "Hg1 mi
7:53 AM61 °FFog.No wind90%29.92 "Hg0 mi
7:00 AM59 °FPassing clouds.No wind87%29.91 "Hg10 mi
5:53 AM61 °FClear.3 mph83%29.89 "Hg10 mi
4:53 AM61 °FClear.No wind83%29.89 "Hg10 mi
3:53 AM61 °FClear.No wind83%29.89 "Hg10 mi
2:53 AM61 °FClear.No wind87%29.89 "Hg10 mi
1:53 AM61 °FClear.No wind87%29.90 "Hg10 mi
12:53 AM62 °FClear.No wind86%29.91 "Hg10 mi
11:53 PM
Aug 29
62 °FClear.No wind86%29.92 "Hg10 mi
10:53 PM64 °FClear.No wind84%29.92 "Hg10 mi
9:53 PM64 °FClear.No wind84%29.92 "Hg10 mi
8:53 PM64 °FClear.3 mph84%29.91 "Hg10 mi
7:53 PM65 °FSunny.5 mph81%29.91 "Hg10 mi
6:53 PM67 °FSunny.7 mph76%29.91 "Hg10 mi
5:53 PM68 °FSunny.7 mph73%29.91 "Hg10 mi
4:53 PM72 °FSunny.8 mph66%29.91 "Hg10 mi
3:53 PM72 °FSunny.9 mph64%29.91 "Hg10 mi
2:53 PM75 °FSunny.5 mph55%29.91 "Hg10 mi
Weather by CustomWeather, © 2014

See weather overviewHow to use our weather pages